Location: Bratsk-Energetik
(56.3300°N, 101.7600°E)
Time: 16:08:16
(UTC+08:00)

ISS - Visible Passes

Search period start: 14 December 2017 00:00
Search period end: 24 December 2017 00:00
Orbit: 402 x 406 km, 51.6° (Epoch: 14 December)

Date Brightness Start Highest point End Pass type
(mag) Time Alt. Az. Time Alt. Az. Time Alt. Az.
14 Dec -1.4 18:00:36 10° WSW 18:03:18 23° SSW 18:05:59 10° SSE visible
15 Dec -0.6 18:45:41 10° WSW 18:46:57 12° SW 18:48:13 10° SSW visible
16 Dec -0.8 17:52:47 10° WSW 17:54:57 16° SSW 17:57:05 10° SSE visible
18 Dec 0.0 17:45:55 10° SW 17:46:27 10° SW 17:46:59 10° SSW visible
